Nicholas Ochieng

Olheiro-Chefe - Gor Mahia
10 Dez 2028
Domingo
Processo

Personalidade

Adaptabilidade (13) Ambição (3) Controvérsia (18) Lealdade (19) Pressão (17) Profissionalismo (6) Espírito Esportivo (6) Temperamento (7)

Perfil

Estilo de Treinamento Democrático
Licença Continental C
Determinação 3
Gestão de Pessoas 3
Motivação 9
Disciplina 8
Satisfação no Trabalho
100%
Fadiga
0%
Função Olheiro-Chefe
Salário 27.8K p/s
Contrato 14.03.2030

Desempenho

Comportamento Bom
Eficácia do Treinamento
29%
Desenvolvimento do Jogador
30%
Prevenção de Lesões
45%
Implementação Tática
25%

Eventos Recentes

Avaliou um jogador agora
Participou de uma reunião de recrutamento agora
Avaliou um jogador agora
Avaliou um jogador agora
Avaliou um jogador agora
Avaliou um jogador agora
Avaliou um jogador 7d atrás
Avaliou um jogador 7d atrás

Monitorando agora

127
Jogador Clube Status Habilidade Confiança Observado Última observação Último voto
Lautaro Núñez Alvarado Ativo 106 / 110 40% 1 09.12.2028 -
Gonzalo Gamarra Defensores Ativo 98 / 123 40% 1 09.12.2028 -
Enzo González Defensores Ativo 120 / 125 40% 1 08.12.2028 -
Anthony Lokosa Tarxien Rainbows Ativo 112 / 92 40% 1 08.12.2028 -
Cesar Rubio Envigado Ativo 116 / 135 40% 1 08.12.2028 -
Brian Nievas Chaco For Ever Ativo 105 / 92 40% 1 08.12.2028 -
Siro Rosané Estudiantes Ativo 123 / 121 40% 3 07.12.2028 -
Tomás Ferreyra Defensores Unidos Ativo 129 / 116 40% 1 07.12.2028 -
Yeison Suárez Deportivo Pereira Ativo 122 / 120 40% 1 07.12.2028 -
Luis Olivera Defensores Unidos Ativo 128 / 108 40% 2 06.12.2028 -
Nicolás Mosca Atlanta Ativo 110 / 102 40% 1 06.12.2028 -
Sebastián Marfort Racing Ativo 94 / 102 40% 1 04.12.2028 -
Walter Juárez Güemes Ativo 102 / 119 40% 1 03.12.2028 -
Samuel Bello Patriotas Ativo 99 / 103 40% 1 03.12.2028 -
Dylan Cabral Arsenal Ativo 89 / 123 40% 1 03.12.2028 -
Alan López Mitre Ativo 98 / 115 40% 1 03.12.2028 -
Lorenzo Barrera Agropecuario Argentino Ativo 107 / 88 40% 1 01.12.2028 -
Gianluca Pugliese Güemes Ativo 101 / 98 40% 2 29.11.2028 -
José Barreto Quilmes Ativo 111 / 108 40% 1 29.11.2028 -
Adrián Sánchez Belgrano Ativo 122 / 120 40% 1 29.11.2028 -
Valentin Vidal Union Espanola Ativo 102 / 101 40% 1 28.11.2028 -
Lucas Monzón Alvarado Ativo 117 / 100 40% 1 28.11.2028 -
Gonzalo Flores Almirante Brown Ativo 124 / 111 40% 1 27.11.2028 -
Denis M. Kovalevich Dinamo Brest Ativo 100 / 116 40% 1 26.11.2028 -
Braian Aranda Agropecuario Argentino Ativo 110 / 104 40% 2 25.11.2028 -
Nicolás Retamar Ferro Carril Oeste Ativo 122 / 113 40% 1 24.11.2028 -
Julián Palacios Envigado Ativo 112 / 111 40% 1 24.11.2028 -
Lautaro Disanto Defensores Unidos Ativo 108 / 103 40% 1 23.11.2028 -
Maico Quiroz Güemes Ativo 112 / 98 40% 1 22.11.2028 -
Luis Sandoval Independiente Medellin Ativo 123 / 98 40% 1 21.11.2028 -
Gino Olguín Ferro Carril Oeste Ativo 122 / 122 40% 1 21.11.2028 -
Yuber Quiñónes Patriotas Ativo 134 / 110 40% 1 20.11.2028 -
Franco Camargo Gimnasia y Esgrima Ativo 106 / 91 40% 1 20.11.2028 -
Santiago Longo Belgrano Ativo 143 / 140 40% 1 19.11.2028 -
Gerónimo Tomasetti Temperley Ativo 98 / 91 40% 1 18.11.2028 -
Maximiliano Badur Morón Ativo 101 / 113 40% 1 17.11.2028 -
Federico Ulayar Talleres Ativo 99 / 99 40% 1 17.11.2028 -
Matías Bazzi Talleres Ativo 112 / 93 40% 1 17.11.2028 -
Yeferson Rodallega Envigado Ativo 128 / 125 40% 1 17.11.2028 -
Erick Zakayo Kenya Police Rejeitado 78 / 73 62% 1 31.07.2028 -
Joseph Arumala Ikorodu City Ativo 99 / 83 40% 1 21.07.2028 -
Alberto Lunghi Torres Ativo 95 / 100 40% 1 21.07.2028 -
Connor Mahoney Barrow AFC Ativo 102 / 109 40% 1 18.07.2028 -
Giulio Favale Casertana Ativo 99 / 94 40% 1 18.07.2028 -
Jamie Mullins Wycombe Wanderers Ativo 99 / 100 40% 1 07.07.2028 -
Kimarni Smith Newport County Ativo 89 / 93 40% 1 01.07.2028 -
Joe Thomas Newport County Ativo 87 / 104 40% 1 30.06.2028 -
Mason Bennett Harrogate Town Ativo 88 / 96 40% 1 26.06.2028 -
Paul Osama Muranga Seal Ativo 65 / 65 30% 1 / 1m 03.05.2028 -
Gideon Manaseh Ikorodu City Ativo 102 / 91 40% 1 27.12.2027 -
Jack Vale Sorrento Ativo 108 / 101 40% 2 26.12.2027 -
Bryn Morris Harrogate Town Ativo 100 / 94 40% 1 26.12.2027 -
Tiago Pucciarelli IF Elfsborg Ativo 100 / 118 40% 2 24.12.2027 -
Greg Docherty Barrow AFC Ativo 103 / 106 40% 1 24.12.2027 -
Alexis Coman Chaika Ativo 108 / 111 40% 1 23.12.2027 -
Timur Pukhov Baranovichi Ativo 101 / 97 40% 1 20.12.2027 -
Joel Ezra Enyimba Ativo 81 / 96 40% 2 14.12.2027 -
Promise Itoro Bendel Insurance Ativo 98 / 75 40% 1 13.12.2027 -
Evgeniy Yudchits Isloch Ativo 103 / 96 40% 2 11.12.2027 -
François Kamano Sochi Ativo 119 / 133 40% 2 11.12.2027 -
Luis Segura Akron Ativo 82 / 116 40% 1 08.12.2027 -
Maleace Asamoah Wigan Athletic Ativo 88 / 111 40% 1 04.12.2027 -
Luis Chávez Smorgon Ativo 107 / 84 40% 2 02.12.2027 -
Peter Thiong'o Kakamega Homeboyz Ativo 98 / 81 55% 4 22.11.2027 -
Josh Dacres-Cogley Stockport County Ativo 114 / 101 40% 1 20.11.2027 -
Boniface Muchiri Ulinzi Stars Ativo 87 / 80 40% 2 19.11.2027 -
Lucas Bernal Akron Ativo 92 / 102 40% 1 09.11.2027 -
Yves Koutiama Kenya Police Ativo 99 / 95 40% 4 31.10.2027 -
Daniel Valdelamar Yenisey Ativo 85 / 93 40% 1 27.10.2027 -
Alexey Antilevskiy Slavia Mozyr Ativo 99 / 104 40% 2 25.10.2027 -
Nurdoolot Stalbekov Isloch Ativo 83 / 99 40% 1 25.10.2027 -
Tosin Olawale El-Kanemi Warriors Ativo 82 / 90 40% 1 18.10.2027 -
Denis Levitskiy Dinamo Brest Ativo 96 / 88 40% 1 17.10.2027 -
Joshua Nyatini Kakamega Homeboyz Ativo 85 / 72 40% 2 14.10.2027 -
Kirill Kirilenko Dnepr Mogilev Ativo 105 / 107 40% 1 12.10.2027 -
Alexandr Dzhigero Slavia Mozyr Ativo 85 / 102 40% 1 05.10.2027 -
Karen Vardanyan Dinamo Minsk Ativo 106 / 118 40% 1 04.10.2027 -
Sergey Volkov Isloch Ativo 78 / 99 40% 2 29.09.2027 -
Alfred Mazurich Lida Ativo 108 / 104 40% 3 28.09.2027 -
Marvin Nabwire Kenya Police Ativo 96 / 89 40% 1 27.09.2027 -
Augustine Nwaorisa Enyimba Ativo 76 / 79 40% 2 18.09.2027 -
Denis Grechikho Dinamo Brest Ativo 110 / 84 40% 2 16.09.2027 -
Dillan Solomons Kaizer Chiefs Ativo 106 / 109 40% 2 03.09.2027 -
Tivonge Rushesha Oleksandriya Ativo 98 / 112 40% 1 03.09.2027 -
Hassan Beja AFC Leopards Ativo 78 / 79 40% 2 01.09.2027 -
Mustafa Kizza Nairobi United Ativo 90 / 77 40% 1 31.08.2027 -
Masimiliano Doda Molodechno Ativo 104 / 89 40% 1 31.08.2027 -
Mamaye Coulibaly Djoliba Ativo 104 / 105 40% 2 22.08.2027 -
Milton Maciel Ararat-Armenia Ativo 111 / 121 40% 1 13.08.2027 -
Niccolò Zanellato Casarano Ativo 119 / 93 40% 2 03.08.2027 -
Kirill Malyarov Shinnik Ativo 96 / 111 40% 1 13.07.2027 -
Alexandr Saplinov Volga Ativo 92 / 99 40% 3 07.07.2027 -
Daniil Penchikov Arsenal Tula Ativo 106 / 117 40% 1 05.07.2027 -
Insa Badji Smouha Ativo 91 / 101 40% 1 01.07.2027 -
Ruslan Baitukov Chelyabinsk Ativo 98 / 105 40% 2 25.06.2027 -
Paolo Yrizar Chernomorets Ativo 108 / 116 40% 2 18.06.2027 -
Vasily Cherov Ufa Ativo 106 / 117 40% 1 15.06.2027 -
Youssef Dalouzi Renaissance Ativo 101 / 68 40% 2 09.06.2027 -
Ramazan Gadjimuradov Chelyabinsk Ativo 114 / 90 40% 1 08.06.2027 -
Roger Tamba Chernomorets Ativo 95 / 109 40% 1 06.06.2027 -
Wilson Mwangi Muranga Seal Ativo 82 / 82 42% 1 / 1m 05.05.2027 -
Daniil Agureev Amkar Ativo 87 / 86 40% 1 30.12.2026 -
Dmitry Lesnikov Volgar Ativo 85 / 90 40% 1 24.12.2026 -
Andrey Yakovlev Dinamo Vologda Ativo 82 / 83 40% 1 24.12.2026 -
Andrey Nikitin Neftekhimik Ativo 109 / 87 40% 2 20.12.2026 -
Ivan Sutugin Khimik Ativo 89 / 91 40% 1 18.12.2026 -
Nikita Simdyankin KDV Tomsk Ativo 78 / 83 40% 1 16.12.2026 -
Soslan Takulov Arsenal Tula Ativo 95 / 94 40% 1 16.12.2026 -
Alan Khabalov Ufa Ativo 91 / 83 40% 1 11.12.2026 -
Migran Ageyan Ufa Ativo 91 / 97 40% 1 10.12.2026 -
Kirill Bozhenov Sokol Ativo 109 / 95 40% 1 06.12.2026 -
Artur Gilyazetdinov Yenisey Ativo 102 / 77 40% 1 05.12.2026 -
Rhys Walters Port Vale Ativo 105 / 111 40% 2 04.12.2026 -
Chimezie Njoku Abia Warriors Ativo 103 / 97 40% 2 03.12.2026 -
Ognjen Bakić HNK Gorica Ativo 124 / 108 40% 1 03.12.2026 -
Ilja Moseichuk Kuban Ativo 95 / 101 40% 2 01.12.2026 -
Marko Mijailović Radnicki Nis Ativo 90 / 113 40% 1 29.11.2026 -
Zakaria Ajoughlal Renaissance Ativo 86 / 99 40% 1 29.11.2026 -
Aymen Boutoutaou FCSB Ativo 122 / 106 40% 1 27.11.2026 -
Anton Antonov Chernomorets Ativo 84 / 104 40% 1 24.11.2026 -
Joseph Mbong Hibernians Ativo 94 / 98 40% 1 22.11.2026 -
Fredéric Ananou Olimpija Ljubljana Ativo 99 / 114 40% 1 21.11.2026 -
Louie Watson Spartak Trnava Ativo 103 / 73 40% 1 21.11.2026 -
Arnold Matumele KCB Ativo 81 / 85 55% 1 31.08.2026 -
David Nshimirimana Sofapaka Ativo 91 / 99 55% 1 24.08.2026 -
Maxim Kravtsov Neman Ativo 77 / 69 40% 1 05.08.2026 -
Flávio Silva Kaizer Chiefs Ativo 109 / 98 40% 1 01.08.2026 -